Saint Simons Island, GA

5:09 AM EST on December 16, 2017 (GMT -0500)
McKinnon

Weather History for KSSI - November, 2013

Change the Weather History Date:

Saturday, November 30, 2013

  Actual Average Record
Temperature  
Mean Temperature 52 °F 58 °F  
Max Temperature 55 °F 67 °F 81 °F (1967)
Min Temperature 49 °F 49 °F 26 °F (1959)
Degree Days  
Heating Degree Days 13 8  
Month to date heating degree days 168 151  
Since 1 July heating degree days 190 180  
Cooling Degree Days 0 1  
Month to date cooling degree days 45 54  
Year to date cooling degree days 2587 2615  
Growing Degree Days 2 (Base 50)    
Moisture  
Dew Point 45 °F    
Average Humidity 74    
Maximum Humidity 86    
Minimum Humidity 61    
Precipitation  
Precipitation T in 0.07 in 5.86 in (1962)
Month to date precipitation 3.17 2.03  
Year to date precipitation 50.17 42.36  
Snow  
Snow 0.00 in - 0.00 in ()
Month to date snowfall 0.0  
Since 1 July snowfall 0.0  
Since 1 September snowfall 0.0  
Snow Depth 0.00 in    
Sea Level Pressure  
Sea Level Pressure 30.38 in    
Wind  
Wind Speed 12 mph (NNE)    
Max Wind Speed 20 mph    
Max Gust Speed 29 mph    
Visibility 10 miles    
Events      
T = Trace of Precipitation, MM = Missing Value Source: NWS Daily Summary

Daily Weather History Graph

Daily Weather History Graph

Search for Another Location

Airport or City:

Trip Planner

Search our weather history database for the weather conditions in past years. The results will help you decide how hot, cold, wet, or windy it might be!

Date:

Astronomy

Nov. 30, 2013 Rise Set
Actual Time 7:05 AM EST 5:22 PM EST
Civil Twilight 6:39 AM EST 5:49 PM EST
Nautical Twilight 6:09 AM EST 6:19 PM EST
Astronomical Twilight 5:40 AM EST 6:48 PM EST
Moon 4:23 AM EST (11/30) 3:38 PM EST (11/30)
Length of Visible Light 11h 09m
Length of Day
10h 17m
Waning Crescent, 7% of the Moon is Illuminated
Nov 30
Waning Crescent
Dec 2
New
Dec 9
First Quarter
Dec 17
Full
Dec 25
Last Quarter

Hourly Weather History & Observations

Time (EST) Temp. Dew Point Humidity Pressure Visibility Wind Dir Wind Speed Gust Speed Precip Events Conditions
12:53 AM 52.0 °F 46.0 °F 80% 30.42 in 10.0 mi North 8.1 mph - N/A   Overcast
1:53 AM 53.1 °F 46.0 °F 77% 30.41 in 10.0 mi NNE 10.4 mph - N/A   Overcast
2:53 AM 53.1 °F 46.9 °F 80% 30.40 in 10.0 mi NNE 11.5 mph - N/A   Overcast
3:53 AM 51.1 °F 46.0 °F 83% 30.39 in 10.0 mi North 10.4 mph - 0.00 in   Overcast
4:53 AM 50.0 °F 45.0 °F 83% 30.40 in 10.0 mi North 10.4 mph - N/A   Overcast
5:53 AM 50.0 °F 45.0 °F 83% 30.41 in 10.0 mi North 9.2 mph - 0.00 in   Overcast
6:06 AM 50.0 °F 44.6 °F 82% 30.42 in 10.0 mi NNE 11.5 mph 18.4 mph N/A   Overcast
6:53 AM 50.0 °F 45.0 °F 83% 30.44 in 10.0 mi NNE 13.8 mph 20.7 mph N/A   Overcast
7:53 AM 48.9 °F 45.0 °F 86% 30.43 in 10.0 mi NNE 13.8 mph 21.9 mph N/A   Overcast
8:53 AM 50.0 °F 46.0 °F 86% 30.44 in 10.0 mi NNE 13.8 mph 20.7 mph N/A   Overcast
9:53 AM 50.0 °F 46.0 °F 86% 30.46 in 10.0 mi NNE 12.7 mph - N/A   Overcast
10:53 AM 50.0 °F 46.0 °F 86% 30.45 in 10.0 mi North 11.5 mph 21.9 mph N/A   Overcast
11:53 AM 51.1 °F 45.0 °F 80% 30.43 in 10.0 mi NNE 13.8 mph 21.9 mph N/A   Overcast
12:53 PM 52.0 °F 46.0 °F 80% 30.41 in 10.0 mi NE 17.3 mph 28.8 mph N/A   Overcast
1:03 PM 51.8 °F 46.4 °F 82% 30.40 in 10.0 mi NNE 16.1 mph 23.0 mph N/A   Overcast
1:53 PM 52.0 °F 46.9 °F 83% 30.38 in 10.0 mi NNE 12.7 mph 21.9 mph N/A   Overcast
2:17 PM 53.6 °F 48.2 °F 82% 30.37 in 10.0 mi NNE 11.5 mph - N/A   Overcast
2:53 PM 53.1 °F 46.9 °F 80% 30.37 in 10.0 mi NNE 12.7 mph - N/A   Overcast
3:16 PM 53.6 °F 46.4 °F 77% 30.36 in 10.0 mi NNE 9.2 mph - N/A   Overcast
3:53 PM 55.0 °F 45.0 °F 69% 30.36 in 10.0 mi NNE 13.8 mph - N/A   Overcast
4:53 PM 55.0 °F 46.0 °F 72% 30.35 in 10.0 mi NE 9.2 mph - N/A   Overcast
5:53 PM 55.0 °F 43.0 °F 64% 30.33 in 10.0 mi NNE 13.8 mph - N/A   Overcast
6:53 PM 55.0 °F 43.0 °F 64% 30.33 in 10.0 mi NNE 13.8 mph - N/A   Overcast
7:53 PM 55.0 °F 43.0 °F 64% 30.32 in 10.0 mi NNE 13.8 mph 21.9 mph N/A   Overcast
8:46 PM 53.6 °F 44.6 °F 72% 30.31 in 10.0 mi NNE 10.4 mph - N/A   Mostly Cloudy
8:53 PM 55.0 °F 45.0 °F 69% 30.32 in 10.0 mi NNE 11.5 mph - N/A   Mostly Cloudy
9:53 PM 54.0 °F 44.1 °F 69% 30.31 in 10.0 mi NNE 12.7 mph - N/A   Overcast
10:44 PM 53.6 °F 44.6 °F 72% 30.31 in 10.0 mi NNE 11.5 mph - N/A   Overcast
10:53 PM 54.0 °F 43.0 °F 66% 30.31 in 10.0 mi NNE 13.8 mph - N/A   Overcast
11:53 PM 53.1 °F 44.1 °F 71% 30.28 in 10.0 mi NNE 10.4 mph - N/A   Overcast